Location: Plymouth Village
(34.0436°N, 117.1717°W)
Time: 03:56:41
(UTC+00:00)

Cosmos 2322 Rocket - Pass Details

Date: 10 September 2024
Orbit: 831 x 850 km, 71.0° (Epoch: 09 October)

Event Time Altitude Azimuth Distance (km) Brightness Sun altitude
Rises 12:06:44 0° 334° (NNW) 3,411 5.3 -17.4°
Reaches altitude 10° 12:09:13 10° 331° (NNW) 2,469 4.5 -17.0°
Maximum altitude 12:14:46 59° 253° (WSW) 969 2.2 -15.9°
Drops below altitude 10° 12:20:16 10° 175° (S) 2,443 4.5 -14.8°
Sets 12:22:43 0° 171° (S) 3,370 5.3 -14.3°
